Regional Weather Roundup
Issued by NWS

Home | Current Version | Previous Version | Text Only | Print | Product List | Glossary On
Versions: 1 2 3 4 5 6 7 8 9 10 11 12 13 14 15 16 17 18 19 20 21 22 23 24 25 26 27
000
ASUS45 KCYS 240810
RWRWY

WYOMING REGIONAL WEATHER ROUNDUP
NATIONAL WEATHER SERVICE CHEYENNE WY
200 AM MDT THU APR 24 2014

NOTE:  "FAIR" INDICATES FEW OR NO CLOUDS BELOW 12,000 FEET
WITH NO SIGNIFICANT WEATHER AND/OR OBSTRUCTIONS TO VISIBILITY.

WYZ001-240900-
YELLOWSTONE NATIONAL PARK

CITY           SKY/WX    TMP DP  RH WIND       PRES   REMARKS
LK YELLOWSTONE   N/A     25  19  78 VRB3      29.99R
W YELLOWSTONE  NOT AVBL

$$
WYZ002>013-054>058-071-098>099-240900-
NORTHERN WYOMING

CITY           SKY/WX    TMP DP  RH WIND       PRES   REMARKS
JACKSON        MOCLDY    30  25  80 CALM      30.01F
CODY           PTCLDY    41  19  42 SW10G18   29.88S
GREYBULL       CLEAR     37  20  50 S6        29.89R WCI  32
WORLAND        PTCLDY    36  17  46 SE9       29.89F WCI  29
SHERIDAN         N/A     28  12  50 W8          N/A  WCI  20
BUFFALO        CLEAR     37  13  37 NE8       29.87S WCI  31
GILLETTE       CLEAR     34  25  69 SW12      29.88R WCI  25
HULETT         FAIR      34  21  60 S8        29.88  WCI  27
NEWCASTLE      FAIR      32  25  74 N5        29.90  WCI  27

$$
WYZ014>020-022>026-101>103-240900-
CENTRAL WYOMING

CITY           SKY/WX    TMP DP  RH WIND       PRES   REMARKS
BIG PINEY      CLEAR     24  15  68 E5        30.05S WCI  18
PINEDALE       MOSUNNY   23  21  93 N3        30.05S
DUBOIS         FAIR      30  16  55 NW16G24   29.95R WCI  19
LANDER         PTCLDY    31  15  52 S5        29.95S WCI  26
RIVERTON       PTCLDY    31  15  52 NW12      29.96S WCI  22
CASPER         CLEAR     26  14  60 S5        29.94S WCI  20
DOUGLAS        CLEAR     31  23  72 SW6       29.94F WCI  25

$$
WYZ021-027>030-104>119-240900-
SOUTHERN WYOMING

CITY           SKY/WX    TMP DP  RH WIND       PRES   REMARKS
EVANSTON       CLEAR     26  14  60 SW9       30.08S WCI  17
FORT BRIDGER   FAIR      32  18  56 W12       30.10F WCI  23
ROCK SPRINGS   CLEAR     30  13  49 W13       30.05F WCI  20
DIXON          FAIR      28  16  62 CALM      30.10S
RAWLINS        CLEAR     31  14  49 W24G30    30.01S WCI  17
SARATOGA       FAIR      28  14  54 W10       30.04S WCI  19
LARAMIE        PTCLDY    26  10  50 NW15      29.99R WCI  14
CHEYENNE       PTCLDY    36   9  32 NW17G28   29.96S WCI  26
TORRINGTON     MOCLDY    37  32  82 NW8       29.90F WCI  31
PINE BLUFFS    FAIR      37  12  35 NW15      29.94R WCI  28

$$



USA.gov is the U.S. government's official web portal to all federal, state and local government web resources and services.